TimeEDT,TemperatureF,Dew PointF,Humidity,Sea Level PressureIn,VisibilityMPH,Wind Direction,Wind SpeedMPH,Gust SpeedMPH,PrecipitationIn,Events,Conditions,WindDirDegrees,DateUTC
12:15 AM,39.2,35.6,87,30.14,10.0,SE,4.6,-,N/A,,Overcast,130,2012-10-07 04:15:00
12:35 AM,37.4,35.6,93,30.14,10.0,ESE,4.6,-,N/A,,Overcast,110,2012-10-07 04:35:00
12:55 AM,37.4,35.6,93,30.13,10.0,South,3.5,-,N/A,,Mostly Cloudy,170,2012-10-07 04:55:00
1:15 AM,37.4,35.6,93,30.14,9.0,WSW,5.8,-,0.01,,Overcast,250,2012-10-07 05:15:00
1:35 AM,37.4,35.6,93,30.14,10.0,WSW,3.5,-,0.02,,Overcast,240,2012-10-07 05:35:00
1:55 AM,37.4,33.8,87,30.14,10.0,NNE,4.6,-,0.09,,Overcast,30,2012-10-07 05:55:00
2:35 AM,37.4,33.8,87,30.14,9.0,Calm,Calm,-,0.02,,Overcast,0,2012-10-07 06:35:00
2:55 AM,37.4,33.8,87,30.14,10.0,Calm,Calm,-,0.04,,Overcast,0,2012-10-07 06:55:00
3:15 AM,37.4,33.8,87,30.13,10.0,SE,3.5,-,N/A,,Overcast,130,2012-10-07 07:15:00
3:35 AM,37.4,35.6,93,30.13,10.0,Calm,Calm,-,N/A,,Overcast,0,2012-10-07 07:35:00
3:55 AM,37.4,33.8,87,30.13,10.0,West,3.5,-,N/A,,Overcast,270,2012-10-07 07:55:00
4:15 AM,37.4,33.8,87,30.13,10.0,Calm,Calm,-,N/A,,Overcast,0,2012-10-07 08:15:00
4:35 AM,37.4,33.8,87,30.13,10.0,Calm,Calm,-,0.01,,Overcast,0,2012-10-07 08:35:00
4:55 AM,37.4,35.6,93,30.12,10.0,Calm,Calm,-,0.01,,Overcast,0,2012-10-07 08:55:00
5:15 AM,37.4,33.8,87,30.12,10.0,Calm,Calm,-,N/A,,Overcast,0,2012-10-07 09:15:00
5:35 AM,37.4,35.6,93,30.11,10.0,ESE,3.5,-,N/A,,Overcast,110,2012-10-07 09:35:00
5:55 AM,37.4,33.8,87,30.11,10.0,East,3.5,-,N/A,,Overcast,100,2012-10-07 09:55:00
6:15 AM,37.4,35.6,93,30.12,10.0,Calm,Calm,-,N/A,,Overcast,0,2012-10-07 10:15:00
6:35 AM,37.4,33.8,87,30.13,10.0,WNW,3.5,-,N/A,,Overcast,300,2012-10-07 10:35:00
6:55 AM,37.4,33.8,87,30.12,8.0,SSE,5.8,-,0.05,,Mostly Cloudy,150,2012-10-07 10:55:00
7:15 AM,-9999,-9999,N/A,30.11,10.0,East,8.1,-,N/A,,Mostly Cloudy,90,2012-10-07 11:15:00
7:55 AM,-9999,-9999,N/A,30.10,10.0,ESE,3.5,-,N/A,,Overcast,120,2012-10-07 11:55:00
8:15 AM,-9999,-9999,N/A,30.11,10.0,Calm,Calm,-,N/A,,Overcast,0,2012-10-07 12:15:00
8:35 AM,-9999,-9999,N/A,30.12,9.0,West,4.6,-,N/A,,Mostly Cloudy,280,2012-10-07 12:35:00
8:55 AM,-9999,-9999,N/A,30.12,6.0,Calm,Calm,-,0.02,,Mostly Cloudy,0,2012-10-07 12:55:00
9:15 AM,37.4,35.6,93,30.13,10.0,Calm,Calm,-,N/A,,Overcast,0,2012-10-07 13:15:00
9:35 AM,-9999,-9999,N/A,30.13,9.0,South,3.5,-,0.01,,Mostly Cloudy,170,2012-10-07 13:35:00
9:55 AM,-9999,-9999,N/A,30.13,10.0,South,3.5,-,0.01,,Overcast,180,2012-10-07 13:55:00
10:15 AM,-9999,-9999,N/A,30.13,10.0,Calm,Calm,-,N/A,,Overcast,0,2012-10-07 14:15:00
10:55 AM,39.2,37.4,93,30.13,10.0,Calm,Calm,-,N/A,,Overcast,0,2012-10-07 14:55:00
1:35 PM,42.8,37.4,81,30.12,10.0,South,4.6,-,N/A,,Overcast,180,2012-10-07 17:35:00
1:55 PM,42.8,37.4,81,30.11,10.0,South,3.5,-,N/A,,Overcast,180,2012-10-07 17:55:00
2:15 PM,42.8,37.4,81,30.11,10.0,South,4.6,-,N/A,,Overcast,180,2012-10-07 18:15:00
2:35 PM,-9999,-9999,N/A,30.10,10.0,South,5.8,-,N/A,,Overcast,190,2012-10-07 18:35:00
2:55 PM,-9999,-9999,N/A,30.09,10.0,SW,5.8,-,N/A,,Overcast,230,2012-10-07 18:55:00
3:15 PM,-9999,-9999,N/A,30.09,10.0,West,11.5,-,N/A,,Overcast,270,2012-10-07 19:15:00
3:35 PM,-9999,-9999,N/A,30.09,10.0,WNW,10.4,-,N/A,,Overcast,290,2012-10-07 19:35:00
3:55 PM,-9999,-9999,N/A,30.09,10.0,West,8.1,-,N/A,,Overcast,270,2012-10-07 19:55:00
4:15 PM,-9999,-9999,N/A,30.09,10.0,West,5.8,-,N/A,,Overcast,270,2012-10-07 20:15:00
4:35 PM,-9999,-9999,N/A,30.08,10.0,West,6.9,-,N/A,,Overcast,280,2012-10-07 20:35:00
4:55 PM,-9999,-9999,N/A,30.08,10.0,West,8.1,-,N/A,,Overcast,270,2012-10-07 20:55:00
5:15 PM,-9999,-9999,N/A,30.08,10.0,West,6.9,-,N/A,,Overcast,260,2012-10-07 21:15:00
5:35 PM,-9999,-9999,N/A,30.07,10.0,West,6.9,-,N/A,,Overcast,270,2012-10-07 21:35:00
5:55 PM,-9999,-9999,N/A,30.07,10.0,WSW,8.1,-,N/A,,Overcast,250,2012-10-07 21:55:00
6:15 PM,-9999,-9999,N/A,30.07,10.0,West,10.4,-,N/A,,Mostly Cloudy,270,2012-10-07 22:15:00
6:35 PM,-9999,-9999,N/A,30.07,10.0,West,6.9,-,N/A,,Scattered Clouds,260,2012-10-07 22:35:00
6:55 PM,-9999,-9999,N/A,30.08,10.0,WSW,6.9,-,N/A,,Clear,240,2012-10-07 22:55:00
7:15 PM,42.8,24.8,49,30.08,10.0,Calm,Calm,-,N/A,,Clear,0,2012-10-07 23:15:00
7:35 PM,39.2,26.6,61,30.08,10.0,Calm,Calm,-,N/A,,Clear,0,2012-10-07 23:35:00
7:55 PM,35.6,28.4,75,30.08,10.0,Calm,Calm,-,N/A,,Clear,0,2012-10-07 23:55:00
8:15 PM,35.6,28.4,75,30.08,10.0,Calm,Calm,-,N/A,,Clear,0,2012-10-08 00:15:00
8:55 PM,35.6,28.4,75,30.08,10.0,Calm,Calm,-,N/A,,Clear,0,2012-10-08 00:55:00
9:15 PM,-9999,-9999,N/A,30.07,10.0,Calm,Calm,-,N/A,,Clear,0,2012-10-08 01:15:00
9:35 PM,-9999,-9999,N/A,30.08,10.0,Calm,Calm,-,N/A,,Clear,0,2012-10-08 01:35:00
9:55 PM,-9999,-9999,N/A,30.08,10.0,Calm,Calm,-,N/A,,Clear,0,2012-10-08 01:55:00
10:15 PM,-9999,-9999,N/A,30.08,10.0,Calm,Calm,-,N/A,,Partly Cloudy,0,2012-10-08 02:15:00
10:35 PM,-9999,-9999,N/A,30.08,10.0,Calm,Calm,-,N/A,,Mostly Cloudy,0,2012-10-08 02:35:00
10:55 PM,-9999,-9999,N/A,30.09,10.0,Calm,Calm,-,N/A,,Mostly Cloudy,0,2012-10-08 02:55:00
11:15 PM,-9999,-9999,N/A,30.09,10.0,South,3.5,-,N/A,,Mostly Cloudy,190,2012-10-08 03:15:00
11:35 PM,-9999,-9999,N/A,30.08,10.0,Calm,Calm,-,N/A,,Mostly Cloudy,0,2012-10-08 03:35:00
11:55 PM,-9999,-9999,N/A,30.08,10.0,SSE,3.5,-,N/A,,Mostly Cloudy,160,2012-10-08 03:55:00